Flag for Denmark Weather past 2 weeks in Copenhagen, Denmark

Now
39 °F

Passing clouds.


Feels Like: 30 °F
Forecast: 41 / 45 °F
Wind: 18 mph from West

Location: Koebenhavn-Kastrup Airport

Current Time: Dec 20, 2014 at 5:45:30 PM

Latest Report: Dec 20, 2014 at 5:20 PM


Visibility: N/A

Pressure: 29.45 "Hg

Humidity: 87%

Dew point: 36 °F

Location of CopenhagenLocation

Historic Weather in Copenhagen — Graph

°F

Copenhagen temperature yesterday

Maximum temperature yesterday: 52 °F (at 1:50 AM)
Minimum temperature yesterday: 39 °F (at 6:50 PM)
Average temperature yesterday: 45 °F

Past Weeks' High & Low Weather Summary

 TemperatureHumidityPressure
High52 °F (Dec 19, 1:50 AM)100% (Dec 6, 1:20 AM)30.21 "Hg (Dec 6, 1:20 AM)
Low32 °F (Dec 6, 8:50 PM)75% (Dec 12, 8:50 PM)28.97 "Hg (Dec 12, 4:20 PM)
Average40 °F89%29.68 "Hg
* Reported Dec 5 4:20 PM — Dec 20 4:50 PM, Copenhagen, Weather by CustomWeather, © 2014

Note: Actual official high and low records may vary slightly from our data, if they occured in-between our weather recording intervals... More about our weather records

Advertising

Copenhagen weather history for previous 24 hours

 ConditionsComfort  
Time TempWeatherWind HumidityBarometerVisibility
4:50 PM
Dec 20
39 °FPassing clouds.18 mph87%29.42 "HgN/A
4:20 PM39 °FPassing clouds.17 mph87%29.42 "HgN/A
3:50 PM39 °FPassing clouds.18 mph87%29.42 "HgN/A
3:20 PM39 °FPartly sunny.17 mph87%29.39 "HgN/A
2:50 PM39 °FPartly sunny.15 mph87%29.42 "HgN/A
2:20 PM37 °FSprinkles. Broken clouds.14 mph93%29.42 "HgN/A
1:58 PM39 °FRain showers. Overcast.24 mph87%29.45 "Hg2 mi
1:20 PM41 °FLight rain. Broken clouds.20 mph81%29.45 "HgN/A
12:50 PM43 °FPartly sunny.20 mph76%29.45 "HgN/A
12:20 PM41 °FPartly sunny.20 mph81%29.45 "HgN/A
11:20 AM41 °FScattered clouds.20 mph81%29.47 "HgN/A
10:50 AM39 °FScattered clouds.20 mph87%29.47 "HgN/A
10:20 AM39 °FPartly sunny.21 mph87%29.45 "HgN/A
9:50 AM37 °FBroken clouds.18 mph93%29.45 "HgN/A
9:20 AM37 °FBroken clouds.18 mph93%29.45 "HgN/A
8:50 AM34 °FBroken clouds.10 mph93%29.47 "HgN/A
8:20 AM34 °FRain showers. Passing clouds.16 mph93%29.47 "Hg2 mi
8:00 AM37 °FRain showers. Passing clouds.20 mph93%29.47 "Hg6 mi
7:20 AM37 °FSprinkles. Passing clouds.14 mph93%29.50 "HgN/A
6:50 AM36 °FPassing clouds.9 mph93%29.53 "HgN/A
6:20 AM34 °FPartly cloudy.12 mph100%29.53 "HgN/A
5:56 AM34 °FSprinkles. Passing clouds.20 mph93%29.53 "Hg3 mi
5:20 AM39 °FPassing clouds.24 mph87%29.53 "HgN/A
4:50 AM39 °FPassing clouds.22 mph87%29.53 "HgN/A
4:20 AM39 °FPassing clouds.21 mph87%29.53 "HgN/A
3:50 AM39 °FPassing clouds.24 mph87%29.53 "HgN/A
3:20 AM39 °FPassing clouds.20 mph81%29.56 "HgN/A
2:50 AM39 °FSprinkles. Passing clouds.21 mph87%29.53 "HgN/A
2:20 AM39 °FPassing clouds.21 mph81%29.53 "HgN/A
1:50 AM41 °FPassing clouds.20 mph81%29.53 "HgN/A
1:20 AM41 °FClear.17 mph81%29.53 "Hg10 mi
12:50 AM39 °FClear.17 mph87%29.56 "Hg10 mi
12:20 AM39 °FClear.18 mph87%29.53 "Hg10 mi
11:50 PM
Dec 19
41 °FClear.21 mph81%29.53 "Hg10 mi
11:20 PM41 °FPassing clouds.21 mph81%29.53 "HgN/A
10:50 PM41 °FPassing clouds.18 mph81%29.53 "HgN/A
10:20 PM41 °FPassing clouds.18 mph81%29.53 "HgN/A
9:50 PM41 °FPassing clouds.20 mph81%29.53 "HgN/A
9:20 PM41 °FPassing clouds.18 mph81%29.53 "HgN/A
8:50 PM41 °FPassing clouds.18 mph81%29.53 "HgN/A
8:20 PM41 °FPassing clouds.18 mph81%29.53 "HgN/A
7:50 PM41 °FPassing clouds.18 mph76%29.50 "HgN/A
7:20 PM41 °FPassing clouds.16 mph81%29.50 "HgN/A
6:50 PM39 °FPassing clouds.14 mph87%29.50 "HgN/A
6:20 PM41 °FPassing clouds.18 mph81%29.50 "HgN/A
5:50 PM41 °FPassing clouds.21 mph81%29.50 "HgN/A
5:21 PM41 °FThunderstorms. Passing clouds.15 mph81%29.47 "HgN/A
Weather by CustomWeather, © 2014

See weather overviewHow to use our weather pages